Redmond, OR

1:04 AM PDT on September 27, 2016 (GMT -0700)
Roberts Field Airport

Weather History for KRDM - June, 2013

Change the Weather History Date:

Thursday, June 13, 2013

  Actual Average Record
Temperature  
Mean Temperature 48 °F 58 °F  
Max Temperature 63 °F 75 °F 95 °F (1986)
Min Temperature 33 °F 41 °F 30 °F (2000)
Degree Days  
Heating Degree Days 17 8  
Month to date heating degree days 86 117  
Since 1 June heating degree days 86 117  
Since 1 July heating degree days 6307 6613  
Cooling Degree Days 0 1  
Month to date cooling degree days 8 3  
Year to date cooling degree days 17 8  
Since 1 June cooling degree days 8 3  
Moisture  
Dew Point 33 °F    
Average Humidity 57    
Maximum Humidity 82    
Minimum Humidity 32    
Precipitation  
Precipitation T in 0.02 in 0.30 in (2006)
Month to date precipitation T 0.35  
Year to date precipitation 1.46 4.39  
Sea Level Pressure  
Sea Level Pressure 30.16 in    
Wind  
Wind Speed 9 mph (WNW)    
Max Wind Speed 25 mph    
Max Gust Speed 30 mph    
Visibility 10 miles    
Events      
T = Trace of Precipitation, MM = Missing Value Source: NWS Daily Summary

Daily Weather History Graph

Daily Weather History Graph

Search for Another Location

Airport or City:

Trip Planner

Search our weather history database for the weather conditions in past years. The results will help you decide how hot, cold, wet, or windy it might be!

Date:

Astronomy

Jun. 13, 2013 Rise Set
Actual Time 5:20 AM PDT 8:49 PM PDT
Civil Twilight 4:43 AM PDT 9:26 PM PDT
Nautical Twilight 3:55 AM PDT 10:14 PM PDT
Astronomical Twilight 2:54 AM PDT 11:15 PM PDT
Moon 10:10 AM PDT (6/13) 11:48 PM PDT (6/13)
Length of Visible Light 16h 42m
Length of Day
15h 29m
Waxing Crescent, 22% of the Moon is Illuminated
Jun 13
Waxing Crescent
Jun 16
First Quarter
Jun 23
Full
Jun 29
Last Quarter
Jul 8
New

Hourly Weather History & Observations

Time (PDT) Temp. Windchill Dew Point Humidity Pressure Visibility Wind Dir Wind Speed Gust Speed Precip Events Conditions
12:56 AM 39.9 °F - 32.0 °F 73% 30.13 in 10.0 mi Calm Calm - N/A   Clear
1:56 AM 37.0 °F - 30.0 °F 76% 30.12 in 10.0 mi Calm Calm - N/A   Scattered Clouds
2:56 AM 37.0 °F - 30.9 °F 79% 30.12 in 10.0 mi Calm Calm - N/A   Clear
3:56 AM 35.1 °F 32.2 °F 30.0 °F 82% 30.13 in 10.0 mi South 3.5 mph - N/A   Partly Cloudy
4:56 AM 37.0 °F 33.3 °F 30.0 °F 76% 30.12 in 10.0 mi SSE 4.6 mph - N/A   Overcast
5:56 AM 37.9 °F 33.5 °F 30.9 °F 76% 30.14 in 10.0 mi South 5.8 mph - N/A   Mostly Cloudy
6:56 AM 43.0 °F 41.3 °F 32.0 °F 65% 30.14 in 10.0 mi South 3.5 mph - N/A   Partly Cloudy
7:56 AM 46.9 °F - 36.0 °F 66% 30.14 in 10.0 mi Calm Calm - 0.00 in   Overcast
8:56 AM 48.9 °F - 36.0 °F 61% 30.14 in 10.0 mi WNW 3.5 mph - N/A   Mostly Cloudy
9:56 AM 52.0 °F - 36.0 °F 54% 30.14 in 10.0 mi NNW 6.9 mph - N/A   Overcast
10:56 AM 55.0 °F - 33.1 °F 43% 30.13 in 10.0 mi WNW 12.7 mph 17.3 mph N/A   Mostly Cloudy
11:56 AM 57.0 °F - 33.1 °F 40% 30.15 in 10.0 mi WNW 16.1 mph 23.0 mph N/A   Mostly Cloudy
12:56 PM 59.0 °F - 32.0 °F 36% 30.15 in 10.0 mi WNW 12.7 mph 21.9 mph N/A   Clear
1:56 PM 60.1 °F - 33.1 °F 36% 30.15 in 10.0 mi WNW 9.2 mph 19.6 mph N/A   Mostly Cloudy
2:56 PM 61.0 °F - 30.9 °F 32% 30.15 in 10.0 mi WNW 13.8 mph 23.0 mph N/A   Mostly Cloudy
3:56 PM 62.1 °F - 32.0 °F 32% 30.17 in 10.0 mi West 18.4 mph 29.9 mph N/A   Partly Cloudy
4:56 PM 57.9 °F - 34.0 °F 41% 30.18 in 10.0 mi WNW 17.3 mph 27.6 mph N/A   Partly Cloudy
5:56 PM 57.9 °F - 34.0 °F 41% 30.18 in 10.0 mi WNW 20.7 mph 28.8 mph N/A   Clear
6:56 PM 55.0 °F - 35.1 °F 47% 30.19 in 10.0 mi WNW 17.3 mph 27.6 mph N/A   Clear
7:56 PM 53.1 °F - 35.1 °F 50% 30.21 in 10.0 mi NW 13.8 mph - N/A   Clear
8:56 PM 50.0 °F - 36.0 °F 59% 30.22 in 10.0 mi WNW 12.7 mph - N/A   Clear
9:56 PM 48.9 °F - 37.0 °F 64% 30.23 in 10.0 mi WNW 11.5 mph - N/A   Clear
10:56 PM 46.9 °F - 36.0 °F 66% 30.24 in 10.0 mi NNW 5.8 mph - N/A   Clear
11:56 PM 45.0 °F 42.6 °F 36.0 °F 71% 30.25 in 10.0 mi WSW 4.6 mph - N/A   Clear